Weather in Budanovka

Russia / Kursk Oblast     51°56′48″N   36°21′58″E
temp.,
°C
wind,
m/s
gust,
m/s
humid.,
%
clouds,
%
prec.,
mm/h
press.,
hPa
HPBL,
m
19 january, wed
wed1900:00−8n91789100 0.8 1014623
03:00−10n71591100 0.8 1017472
06:00−11nnw61393100 0.0 1019368
09:00−16nnw379873 0.1 1021105
12:00−14nnw379557 0.0 1021176
15:00−12nw359413 0.0 1021119
18:00−19w2210062 0.0 10219
21:00−20wsw2210075 0.0 102112
20 january, thu
thu2000:00−18ssw239977 0.0 102037
03:00−14ssw379891 0.0 1018115
06:00−13s499886 0.1 1016135
09:00−12s5129799 0.1 1015213
12:00−8s61495100 0.1 1013392
15:00−6s71494100 0.2 1010488
18:00−5s71593100 0.1 1008506
21:00−4ssw71494100 0.1 1007662
21 january, fri
fri2100:00−5s61395100 0.1 1007486
03:00−5s51196100 1.2 1005414
06:00−5s4996100 1.7 1003391
09:00−4ssw3697100 2.9 1002287
12:00−3sw5997100 0.6 1001696
15:00−4sw6108854 1.0 1002682
18:00−7ssw61392100 0.0 1002420
21:00−5ssw81595100 0.7 1002827
22 january, sat
sat2200:00−5ssw81593100 0.6 1002685
03:00−5ssw71493100 0.8 1003604
06:00−5ssw61394100 0.3 1004545
09:00−6s6129491 0.4 1006446
12:00−6s51094100 0.2 1008481
15:00−5s5895100 0.4 1009488
18:00−6sse489592 0.2 1012268
21:00−6sse489683 0.6 1014244
23 january, sun
sun2300:00−12se2210087 0.1 101612
03:00−14se2210095 0.1 101910
06:00−16ese1110099 0.1 10219
09:00−17e22100100 0.1 102414
12:00−11ene239794 0.1 1026109
15:00−10ne359617 0.1 1026128
18:00−14ne389754 0.0 102998
21:00−16ne41097100 0.0 1030134